TimeEDT,TemperatureF,Dew PointF,Humidity,Sea Level PressureIn,VisibilityMPH,Wind Direction,Wind SpeedMPH,Gust SpeedMPH,PrecipitationIn,Events,Conditions,WindDirDegrees,DateUTC
12:54 AM,69.1,62.1,78,30.17,10.0,SW,5.8,-,N/A,,Overcast,220,2013-09-10 04:54:00
1:04 AM,69.8,62.6,78,30.17,10.0,SSW,6.9,-,N/A,,Overcast,210,2013-09-10 05:04:00
1:54 AM,69.1,63.0,81,30.15,10.0,South,5.8,-,N/A,,Overcast,170,2013-09-10 05:54:00
2:54 AM,69.1,64.0,84,30.17,10.0,South,3.5,-,N/A,,Overcast,190,2013-09-10 06:54:00
3:20 AM,69.8,64.4,83,30.16,10.0,South,5.8,-,N/A,,Overcast,170,2013-09-10 07:20:00
3:54 AM,69.1,64.0,84,30.15,10.0,South,3.5,-,N/A,,Overcast,170,2013-09-10 07:54:00
4:54 AM,71.1,64.9,81,30.15,10.0,SSW,5.8,-,N/A,,Overcast,200,2013-09-10 08:54:00
5:15 AM,71.6,66.2,83,30.15,10.0,SSW,10.4,-,N/A,,Overcast,200,2013-09-10 09:15:00
5:54 AM,72.0,66.9,84,30.16,10.0,SSW,9.2,-,N/A,,Overcast,210,2013-09-10 09:54:00
6:01 AM,71.6,66.2,83,30.16,10.0,SSW,9.2,-,N/A,,Overcast,210,2013-09-10 10:01:00
6:18 AM,71.6,66.2,83,30.17,10.0,SSW,8.1,-,N/A,,Overcast,200,2013-09-10 10:18:00
6:35 AM,71.6,66.2,83,30.17,10.0,South,6.9,-,N/A,,Overcast,190,2013-09-10 10:35:00
6:47 AM,71.6,66.2,83,30.18,10.0,South,5.8,-,N/A,,Overcast,180,2013-09-10 10:47:00
6:54 AM,72.0,66.9,84,30.17,10.0,South,6.9,-,N/A,,Overcast,180,2013-09-10 10:54:00
7:28 AM,71.6,66.2,83,30.16,10.0,SSW,10.4,-,N/A,,Overcast,200,2013-09-10 11:28:00
7:50 AM,71.6,66.2,83,30.16,10.0,SSW,10.4,-,N/A,,Overcast,200,2013-09-10 11:50:00
7:54 AM,72.0,66.9,84,30.16,10.0,SSW,10.4,-,N/A,,Overcast,210,2013-09-10 11:54:00
8:54 AM,73.9,68.0,82,30.17,10.0,SW,10.4,-,N/A,,Overcast,230,2013-09-10 12:54:00
9:08 AM,73.4,68.0,83,30.17,10.0,SW,8.1,-,N/A,,Overcast,220,2013-09-10 13:08:00
9:54 AM,75.0,68.0,79,30.19,10.0,SW,12.7,-,N/A,,Overcast,230,2013-09-10 13:54:00
10:54 AM,77.0,68.0,74,30.18,10.0,SSW,9.2,-,N/A,,Overcast,200,2013-09-10 14:54:00
11:54 AM,79.0,68.0,69,30.17,10.0,SW,10.4,-,N/A,,Mostly Cloudy,220,2013-09-10 15:54:00
12:23 PM,78.8,68.0,69,30.16,10.0,WSW,6.9,-,N/A,,Mostly Cloudy,250,2013-09-10 16:23:00
12:50 PM,80.6,69.8,70,30.14,10.0,SW,8.1,-,N/A,,Mostly Cloudy,220,2013-09-10 16:50:00
12:54 PM,81.0,70.0,69,30.13,10.0,South,10.4,-,N/A,,Mostly Cloudy,190,2013-09-10 16:54:00
1:54 PM,84.0,70.0,63,30.12,10.0,SSW,12.7,-,N/A,,Mostly Cloudy,210,2013-09-10 17:54:00
2:54 PM,86.0,71.1,61,30.11,10.0,SSW,9.2,-,N/A,,Mostly Cloudy,200,2013-09-10 18:54:00
3:54 PM,87.1,71.1,59,30.10,10.0,SW,11.5,-,N/A,,Mostly Cloudy,220,2013-09-10 19:54:00
4:54 PM,88.0,70.0,55,30.09,10.0,SW,12.7,-,N/A,,Scattered Clouds,230,2013-09-10 20:54:00
5:54 PM,87.1,71.1,59,30.09,10.0,SSW,10.4,-,N/A,,Scattered Clouds,210,2013-09-10 21:54:00
6:54 PM,84.9,71.1,63,30.09,10.0,SSW,8.1,-,N/A,,Scattered Clouds,210,2013-09-10 22:54:00
7:54 PM,82.9,72.0,69,30.11,10.0,South,5.8,-,N/A,,Scattered Clouds,190,2013-09-10 23:54:00
8:54 PM,81.0,72.0,74,30.12,10.0,South,5.8,-,N/A,,Partly Cloudy,190,2013-09-11 00:54:00
9:54 PM,80.1,72.0,76,30.13,10.0,South,5.8,-,N/A,,Clear,190,2013-09-11 01:54:00
10:50 PM,78.8,71.6,78,30.14,8.0,SSW,5.8,-,N/A,,Clear,200,2013-09-11 02:50:00
10:54 PM,79.0,71.1,77,30.14,8.0,SSW,6.9,-,N/A,,Clear,200,2013-09-11 02:54:00
11:54 PM,79.0,71.1,77,30.14,8.0,SW,8.1,-,N/A,,Partly Cloudy,230,2013-09-11 03:54:00